Marshfield, WI

8:54 AM CDT on October 19, 2017 (GMT -0500)
Marshfield Municipal

Weather History for KMFI - January, 2013

Change the Weather History Date:

Saturday, January 19, 2013

  Actual Average Record
Temperature  
Mean Temperature 22 °F -  
Max Temperature 39 °F 24 °F 44 °F (1947)
Min Temperature 5 °F 3 °F -29 °F (1970)
Degree Days  
Heating Degree Days 43    
Moisture  
Dew Point 20 °F    
Average Humidity 75    
Maximum Humidity 92    
Minimum Humidity 58    
Precipitation  
Precipitation 0.00 in - - ()
Sea Level Pressure  
Sea Level Pressure 29.73 in    
Wind  
Wind Speed 13 mph (West)    
Max Wind Speed 32 mph    
Max Gust Speed 52 mph    
Visibility 9 miles    
Events Snow    
Averages and records for this station are not official NWS values.
T = Trace of Precipitation, MM = Missing Value Source: NWS Daily Summary

Daily Weather History Graph

Daily Weather History Graph

Search for Another Location

Airport or City:

Trip Planner

Search our weather history database for the weather conditions in past years. The results will help you decide how hot, cold, wet, or windy it might be!

Date:

Astronomy

Jan. 19, 2013 Rise Set
Actual Time 7:31 AM CST 4:52 PM CST
Civil Twilight 6:59 AM CST 5:24 PM CST
Nautical Twilight 6:23 AM CST 6:00 PM CST
Astronomical Twilight 5:48 AM CST 6:34 PM CST
Moon 11:21 AM CST 1:02 AM CST
Length of Visible Light 10h 24m
Length of Day
9h 20m
First Quarter, 57% of the Moon is Illuminated
Jan 19
First Quarter
Jan 26
Full
Feb 3
Last Quarter
Feb 10
New
Feb 17
First Quarter

Hourly Weather History & Observations

Time (CST) Temp. Windchill Dew Point Humidity Pressure Visibility Wind Dir Wind Speed Gust Speed Precip Events Conditions
12:54 AM 30.0 °F 23.2 °F 25.0 °F 82% 29.79 in 10.0 mi West 6.9 mph - N/A   Clear
1:54 AM 28.9 °F 21.1 °F 25.0 °F 85% 29.80 in 10.0 mi WNW 8.1 mph - N/A   Clear
2:54 AM 28.9 °F 23.9 °F 25.0 °F 85% 29.81 in 10.0 mi WSW 4.6 mph - N/A   Scattered Clouds
3:54 AM 28.0 °F 22.8 °F 26.1 °F 92% 29.80 in 10.0 mi SSW 4.6 mph - N/A   Overcast
4:54 AM 28.9 °F 25.2 °F 26.1 °F 89% 29.78 in 10.0 mi SSW 3.5 mph - N/A   Overcast
5:54 AM 28.9 °F 25.2 °F 26.1 °F 89% 29.76 in 9.0 mi South 3.5 mph - N/A   Overcast
6:54 AM 28.9 °F 23.9 °F 27.0 °F 92% 29.75 in 10.0 mi South 4.6 mph - N/A   Overcast
8:54 AM 32.0 °F - 28.9 °F 88% 29.72 in 10.0 mi Calm Calm - N/A   Partly Cloudy
9:54 AM 34.0 °F 26.6 °F 28.9 °F 82% 29.71 in 10.0 mi SW 9.2 mph - N/A   Clear
10:54 AM 37.0 °F 28.9 °F 30.0 °F 76% 29.68 in 10.0 mi WSW 12.7 mph - N/A   Clear
11:54 AM 37.9 °F 30.5 °F 30.0 °F 73% 29.65 in 10.0 mi West 11.5 mph 19.6 mph N/A   Mostly Cloudy
12:54 PM 39.0 °F 31.4 °F 30.9 °F 73% 29.62 in 10.0 mi West 12.7 mph - N/A   Scattered Clouds
1:54 PM 39.9 °F 32.5 °F 30.0 °F 68% 29.61 in 10.0 mi West 12.7 mph 19.6 mph N/A   Mostly Cloudy
2:54 PM 39.0 °F 30.6 °F 30.0 °F 70% 29.62 in 10.0 mi West 15.0 mph 28.8 mph N/A   Overcast
3:22 PM 35.6 °F 22.7 °F 28.4 °F 75% 29.61 in 10.0 mi WNW 28.8 mph 38.0 mph N/A   Overcast
3:44 PM 35.6 °F 24.8 °F 26.6 °F 70% 29.61 in 10.0 mi WNW 19.6 mph 28.8 mph N/A   Overcast
3:54 PM 35.1 °F 24.8 °F 28.0 °F 76% 29.67 in 10.0 mi West 17.3 mph 26.5 mph N/A   Overcast
4:50 PM 33.8 °F 23.2 °F 26.6 °F 75% 29.60 in 5.0 mi West 17.3 mph 21.9 mph 0.00 in Snow Light Snow
4:54 PM 33.1 °F 21.5 °F 27.0 °F 78% 29.65 in 3.0 mi West 19.6 mph 29.9 mph 0.00 in Snow Light Snow
5:22 PM 32.0 °F 22.1 °F 28.4 °F 87% 29.59 in 10.0 mi West 13.8 mph 27.6 mph 0.00 in   Overcast
5:40 PM 32.0 °F 19.2 °F 26.6 °F 80% 29.58 in 1.8 mi West 23.0 mph 38.0 mph 0.00 in Snow Light Snow
5:47 PM 33.8 °F 21.3 °F 26.6 °F 75% 29.58 in 3.0 mi West 24.2 mph 34.5 mph 0.00 in Snow Light Snow
5:54 PM 33.1 °F 20.1 °F 25.0 °F 72% 29.63 in 9.0 mi WNW 25.3 mph 36.8 mph 0.00 in   Overcast
6:54 PM 19.0 °F -0.5 °F 8.1 °F 62% 29.75 in 9.0 mi WNW 32.2 mph 51.8 mph 0.00 in   Overcast
7:54 PM 14.0 °F -6.8 °F 5.0 °F 67% 29.82 in 8.0 mi WNW 29.9 mph 49.5 mph 0.00 in Snow Light Snow
8:26 PM 10.4 °F -11.7 °F -0.4 °F 62% 29.80 in 10.0 mi NW 29.9 mph 46.0 mph 0.00 in   Scattered Clouds
8:54 PM 10.0 °F -11.5 °F -2.0 °F 58% 29.88 in 10.0 mi NW 27.6 mph 43.7 mph 0.00 in   Clear
9:54 PM 7.0 °F -16.0 °F -2.9 °F 64% 29.94 in 10.0 mi WNW 28.8 mph 38.0 mph N/A   Partly Cloudy
10:09 PM 6.8 °F -14.3 °F -2.2 °F 67% 29.89 in 9.0 mi WNW 23.0 mph 36.8 mph N/A   Mostly Cloudy
10:54 PM 5.0 °F -18.3 °F -4.0 °F 66% 29.99 in 10.0 mi WNW 27.6 mph 39.1 mph N/A   Overcast
11:49 PM 5.0 °F -17.5 °F -5.8 °F 61% 29.95 in 10.0 mi WNW 25.3 mph 34.5 mph N/A   Scattered Clouds